DW4381 Weather Reports


time (UTC)temp
C
wind
direction
speed
KPH
gust
KPH
rain 1hr
cm
rain 24hr
cm
rain mn
cm
humidity
%
barometer
mb
20220811234146 23 10 0.0 0.0 0.00 0.00 0.00 37 1032.4
20220811233646 23 10 0.0 8.0 0.00 0.00 0.00 37 1032.5
20220811233149 23 10 0.0 8.0 0.00 0.00 0.00 37 1032.4
20220811232649 23 10 0.0 0.0 0.00 0.00 0.00 37 1032.4
20220811232149 23 10 0.0 9.7 0.00 0.00 0.00 36 1032.4
20220811231652 23 10 0.0 0.0 0.00 0.00 0.00 36 1032.4
20220811231149 23 10 0.0 0.0 0.00 0.00 0.00 39 1032.4
20220811230652 23 10 0.0 0.0 0.00 0.00 0.00 38 1032.4
20220811230146 23 10 0.0 0.0 0.00 0.00 0.00 40 1032.3
20220811225646 23 10 0.0 1.6 0.00 0.00 0.00 38 1032.3
20220811225152 23 10 0.0 0.0 0.00 0.00 0.00 37 1032.2
20220811224649 23 10 0.0 6.4 0.00 0.00 0.00 38 1032.1
20220811224146 23 10 0.0 6.4 0.00 0.00 0.00 37 1032.1
20220811223646 23 10 0.0 0.0 0.00 0.00 0.00 38 1031.9
20220811223152 23 10 0.0 8.0 0.00 0.00 0.00 39 1031.9
20220811222646 23 10 3.2 9.7 0.00 0.00 0.00 38 1031.8
20220811222149 23 10 0.0 9.7 0.00 0.00 0.00 38 1031.8
20220811221649 23 10 0.0 8.0 0.00 0.00 0.00 37 1031.7
20220811221146 23 10 0.0 0.0 0.00 0.00 0.00 38 1031.7
20220811220646 23 10 0.0 0.0 0.00 0.00 0.00 37 1031.7
20220811220149 23 10 0.0 11.3 0.00 0.00 0.00 36 1031.5
20220811215646 23 10 0.0 14.5 0.00 0.00 0.00 37 1031.5
20220811215146 23 10 0.0 19.3 0.00 0.00 0.00 36 1031.4
20220811214646 23 10 16.1 17.7 0.00 0.00 0.00 35 1031.3
20220811214146 23 10 0.0 4.8 0.00 0.00 0.00 34 1031.3
20220811213646 24 10 0.0 0.0 0.00 0.00 0.00 35 1031.2
20220811213152 24 10 0.0 11.3 0.00 0.00 0.00 34 1031.2
20220811212646 25 10 0.0 16.1 0.00 0.00 0.00 35 1031.1
20220811212146 25 10 0.0 22.5 0.00 0.00 0.00 33 1031.1
20220811211649 25 10 0.0 19.3 0.00 0.00 0.00 33 1031.0
20220811211146 25 10 0.0 20.9 0.00 0.00 0.00 32 1031.0
20220811210646 25 10 0.0 19.3 0.00 0.00 0.00 34 1030.9
20220811210149 25 10 6.4 17.7 0.00 0.00 0.00 33 1030.7
20220811205646 25 10 14.5 25.7 0.00 0.00 0.00 32 1030.7
20220811205152 25 10 0.0 19.3 0.00 0.00 0.00 33 1030.6
20220811204649 25 10 11.3 19.3 0.00 0.00 0.00 35 1030.7
20220811204149 25 10 16.1 20.9 0.00 0.00 0.00 34 1030.6
20220811203646 25 10 8.0 25.7 0.00 0.00 0.00 34 1030.5
20220811203146 25 10 0.0 24.1 0.00 0.00 0.00 33 1030.5
20220811202652 25 10 0.0 25.7 0.00 0.00 0.00 32 1030.5
20220811202146 25 10 0.0 29.0 0.00 0.00 0.00 33 1030.5
20220811201646 26 10 6.4 24.1 0.00 0.00 0.00 33 1030.5
20220811201146 26 10 8.0 22.5 0.00 0.00 0.00 33 1030.6
20220811200652 25 10 14.5 17.7 0.00 0.00 0.00 34 1030.6
20220811200149 25 10 0.0 20.9 0.00 0.00 0.00 34 1030.6
20220811195646 26 10 24.1 27.4 0.00 0.00 0.00 34 1030.5
20220811195146 26 10 11.3 24.1 0.00 0.00 0.00 32 1030.5
20220811194652 26 10 0.0 24.1 0.00 0.00 0.00 34 1030.5
20220811194146 26 10 16.1 24.1 0.00 0.00 0.00 32 1030.4
20220811193646 26 10 3.2 20.9 0.00 0.00 0.00 33 1030.4
20220811193149 26 10 0.0 24.1 0.00 0.00 0.00 34 1030.3
20220811192646 26 10 17.7 19.3 0.00 0.00 0.00 32 1030.1
20220811192146 26 10 0.0 11.3 0.00 0.00 0.00 33 1030.0
20220811191646 26 10 1.6 11.3 0.00 0.00 0.00 33 1030.1
20220811191146 26 10 0.0 6.4 0.00 0.00 0.00 29 1030.1
20220811190646 26 33 1.6 8.0 0.00 0.00 0.00 29 1030.1
20220811190146 26 10 0.0 20.9 0.00 0.00 0.00 29 1030.0
20220811185646 26 359 0.0 14.5 0.00 0.00 0.00 30 1030.0
20220811185146 26 359 12.9 19.3 0.00 0.00 0.00 29 1029.9
20220811184652 26 10 11.3 16.1 0.00 0.00 0.00 30 1029.7
20220811184146 26 10 0.0 11.3 0.00 0.00 0.00 31 1029.9
20220811183649 26 10 0.0 11.3 0.00 0.00 0.00 31 1029.8
20220811183146 26 10 3.2 14.5 0.00 0.00 0.00 29 1029.9
20220811182649 26 353 0.0 17.7 0.00 0.00 0.00 32 1029.8
20220811182146 26 10 8.0 4.8 0.00 0.00 0.00 31 1029.8
20220811181646 26 10 0.0 16.1 0.00 0.00 0.00 32 1029.7
20220811181146 25 353 6.4 12.9 0.00 0.00 0.00 32 1029.6
20220811180652 25 10 0.0 14.5 0.00 0.00 0.00 32 1029.6
20220811180149 25 10 0.0 8.0 0.00 0.00 0.00 32 1029.6
20220811175646 25 10 0.0 17.7 0.00 0.00 0.00 33 1029.6
20220811175149 25 10 0.0 19.3 0.00 0.00 0.00 32 1029.6
20220811174646 25 10 12.9 14.5 0.00 0.00 0.00 34 1029.4
20220811174146 24 10 0.0 8.0 0.00 0.00 0.00 34 1029.5
20220811173652 24 10 9.7 16.1 0.00 0.00 0.00 34 1029.5
20220811173149 24 10 0.0 19.3 0.00 0.00 0.00 34 1029.6
20220811172646 24 5 3.2 16.1 0.00 0.00 0.00 35 1029.5
20220811172152 24 10 0.0 20.9 0.00 0.00 0.00 35 1029.4
20220811171646 24 10 0.0 14.5 0.00 0.00 0.00 35 1029.4
20220811171146 23 10 3.2 19.3 0.00 0.00 0.00 34 1029.3
20220811170646 23 10 0.0 12.9 0.00 0.00 0.00 34 1029.4
20220811170146 23 10 3.2 19.3 0.00 0.00 0.00 34 1029.3
20220811165652 23 10 0.0 17.7 0.00 0.00 0.00 35 1029.2
20220811165149 23 10 0.0 20.9 0.00 0.00 0.00 35 1029.2
20220811164646 23 10 3.2 16.1 0.00 0.00 0.00 36 1029.2
20220811164149 23 10 12.9 16.1 0.00 0.00 0.00 36 1029.1
20220811163646 23 10 0.0 19.3 0.00 0.00 0.00 39 1029.2
20220811163146 23 10 3.2 17.7 0.00 0.00 0.00 38 1029.1
20220811162649 22 10 14.5 17.7 0.00 0.00 0.00 37 1029.0
20220811162152 22 10 4.8 17.7 0.00 0.00 0.00 38 1029.0
20220811161652 22 10 9.7 19.3 0.00 0.00 0.00 39 1028.9
20220811161149 22 10 11.3 22.5 0.00 0.00 0.00 37 1028.8
20220811160649 22 10 8.0 22.5 0.00 0.00 0.00 36 1028.8
20220811160146 22 10 11.3 22.5 0.00 0.00 0.00 36 1028.8
20220811155646 22 10 3.2 25.7 0.00 0.00 0.00 36 1028.7
20220811155149 22 10 20.9 25.7 0.00 0.00 0.00 37 1028.7
20220811154646 22 10 0.0 27.4 0.00 0.00 0.00 39 1028.7
20220811154146 21 10 0.0 24.1 0.00 0.00 0.00 37 1028.5
20220811153649 21 10 3.2 22.5 0.00 0.00 0.00 39 1028.6
20220811153149 21 10 3.2 30.6 0.00 0.00 0.00 38 1028.5
20220811152649 21 10 19.3 29.0 0.00 0.00 0.00 39 1028.5
20220811152149 21 10 0.0 25.7 0.00 0.00 0.00 38 1028.5
20220811151649 21 10 6.4 25.7 0.00 0.00 0.00 38 1028.5
20220811151149 21 10 12.9 33.8 0.00 0.00 0.00 38 1028.4
20220811150646 21 10 8.0 27.4 0.00 0.00 0.00 39 1028.3
20220811150146 21 10 0.0 27.4 0.00 0.00 0.00 38 1028.3
20220811145652 21 10 8.0 25.7 0.00 0.00 0.00 39 1028.3
20220811145149 21 10 0.0 29.0 0.00 0.00 0.00 40 1028.3
20220811144652 20 10 17.7 27.4 0.00 0.00 0.00 39 1028.2
20220811144146 20 10 11.3 27.4 0.00 0.00 0.00 40 1028.1
20220811143652 20 10 8.0 29.0 0.00 0.00 0.00 40 1028.2
20220811143149 20 10 17.7 40.2 0.00 0.00 0.00 39 1028.1
20220811142646 20 10 16.1 33.8 0.00 0.00 0.00 40 1028.2
20220811142149 20 10 12.9 33.8 0.00 0.00 0.00 40 1028.1
20220811141646 20 10 14.5 32.2 0.00 0.00 0.00 40 1028.1
20220811141146 20 10 16.1 29.0 0.00 0.00 0.00 40 1028.2
20220811140649 20 10 4.8 27.4 0.00 0.00 0.00 40 1028.4
20220811140146 20 151 12.9 27.4 0.00 0.00 0.00 40 1028.5
20220811135646 20 10 3.2 19.3 0.00 0.00 0.00 41 1028.6
20220811135146 20 10 14.5 35.4 0.00 0.00 0.00 40 1028.6
20220811134652 20 10 8.0 20.9 0.00 0.00 0.00 41 1028.6
20220811134146 20 10 0.0 11.3 0.00 0.00 0.00 41 1028.8
20220811133652 20 10 0.0 25.7 0.00 0.00 0.00 41 1028.8
20220811133152 20 10 0.0 12.9 0.00 0.00 0.00 41 1028.8
20220811132646 19 10 0.0 8.0 0.00 0.00 0.00 41 1028.8
20220811132149 19 10 9.7 11.3 0.00 0.00 0.00 42 1028.8
20220811131649 18 10 0.0 0.0 0.00 0.00 0.00 43 1028.8
20220811131146 18 10 0.0 0.0 0.00 0.00 0.00 44 1028.8
20220811130646 18 10 0.0 0.0 0.00 0.00 0.00 43 1028.9
20220811130146 18 10 0.0 0.0 0.00 0.00 0.00 44 1029.0
20220811125649 18 10 0.0 0.0 0.00 0.00 0.00 43 1028.9
20220811125149 18 10 0.0 0.0 0.00 0.00 0.00 44 1028.9
20220811124649 17 10 0.0 0.0 0.00 0.00 0.00 45 1029.0
20220811124149 17 10 0.0 0.0 0.00 0.00 0.00 44 1028.9
20220811123646 17 10 0.0 0.0 0.00 0.00 0.00 45 1028.9
20220811123152 17 10 0.0 0.0 0.00 0.00 0.00 45 1028.9
20220811122652 17 10 0.0 0.0 0.00 0.00 0.00 46 1029.0
20220811122146 16 10 0.0 0.0 0.00 0.00 0.00 46 1029.0
20220811121646 16 10 0.0 0.0 0.00 0.00 0.00 46 1029.0
20220811121152 16 10 0.0 0.0 0.00 0.00 0.00 47 1029.1
20220811120649 16 10 0.0 0.0 0.00 0.00 0.00 47 1029.2
20220811120149 16 10 0.0 0.0 0.00 0.00 0.00 47 1029.3
20220811115646 16 10 0.0 0.0 0.00 0.00 0.00 47 1029.3
20220811115152 16 10 0.0 0.0 0.00 0.00 0.00 47 1029.3
20220811114646 16 10 0.0 0.0 0.00 0.00 0.00 47 1029.3
20220811114146 16 10 0.0 0.0 0.00 0.00 0.00 47 1029.3
20220811113652 16 10 0.0 0.0 0.00 0.00 0.00 47 1029.4
20220811113149 16 10 0.0 0.0 0.00 0.00 0.00 47 1029.5
20220811112654 16 10 0.0 0.0 0.00 0.00 0.00 48 1029.6
20220811112152 16 10 0.0 0.0 0.00 0.00 0.00 48 1029.7
20220811111658 16 10 0.0 0.0 0.00 0.00 0.00 48 1029.7
20220811111156 16 10 0.0 0.0 0.00 0.00 0.00 48 1029.7
20220811110654 16 10 0.0 0.0 0.00 0.00 0.00 48 1029.9
20220811110146 16 10 0.0 0.0 0.00 0.00 0.00 48 1029.9
20220811105649 16 10 0.0 0.0 0.00 0.00 0.00 48 1030.0
20220811105146 16 10 0.0 0.0 0.00 0.00 0.00 48 1030.0
20220811104649 16 10 0.0 0.0 0.00 0.00 0.00 48 1030.1
20220811104151 16 10 0.0 0.0 0.00 0.00 0.00 49 1030.1
20220811103651 16 10 0.0 0.0 0.00 0.00 0.00 49 1030.1
20220811103149 16 10 0.0 0.0 0.00 0.00 0.00 49 1030.2
20220811102649 16 10 0.0 0.0 0.00 0.00 0.00 49 1030.2
20220811102146 16 10 0.0 0.0 0.00 0.00 0.00 49 1030.4
20220811101652 16 10 0.0 0.0 0.00 0.00 0.00 50 1030.5
20220811101157 15 10 0.0 0.0 0.00 0.00 0.00 50 1030.6
20220811100646 15 10 0.0 8.0 0.00 0.00 0.00 50 1030.8
20220811100149 15 10 0.0 0.0 0.00 0.00 0.00 51 1030.8
20220811095649 15 10 0.0 0.0 0.00 0.00 0.00 50 1030.8
20220811095146 15 10 0.0 0.0 0.00 0.00 0.00 51 1030.9
20220811094649 15 10 0.0 0.0 0.00 0.00 0.00 51 1031.0
20220811094146 15 10 0.0 0.0 0.00 0.00 0.00 51 1031.1
20220811093646 15 10 0.0 0.0 0.00 0.00 0.00 51 1031.2
20220811093146 15 10 0.0 0.0 0.00 0.00 0.00 52 1031.3
20220811092649 15 10 0.0 0.0 0.00 0.00 0.00 53 1031.3
20220811092146 15 10 0.0 12.9 0.00 0.00 0.00 53 1031.5
20220811091646 15 10 6.4 14.5 0.00 0.00 0.00 53 1031.5
20220811091146 15 10 11.3 16.1 0.00 0.00 0.00 53 1031.7
20220811090649 15 10 0.0 0.0 0.00 0.00 0.00 53 1031.7
20220811090149 15 10 0.0 0.0 0.00 0.00 0.00 53 1031.8
20220811085646 15 10 0.0 0.0 0.00 0.00 0.00 53 1031.9
20220811085146 15 10 0.0 0.0 0.00 0.00 0.00 53 1031.9
20220811084652 15 10 0.0 11.3 0.00 0.00 0.00 53 1032.0
20220811084149 15 10 0.0 0.0 0.00 0.00 0.00 53 1032.0
20220811083649 15 10 0.0 0.0 0.00 0.00 0.00 53 1032.1
20220811083146 15 10 0.0 0.0 0.00 0.00 0.00 53 1032.2
20220811082646 15 10 0.0 0.0 0.00 0.00 0.00 53 1032.3
20220811082149 15 10 0.0 16.1 0.00 0.00 0.00 53 1032.4
20220811081646 15 10 0.0 8.0 0.00 0.00 0.00 52 1032.5
20220811081152 16 10 0.0 4.8 0.00 0.00 0.00 52 1032.5
20220811080649 16 10 4.8 11.3 0.00 0.00 0.00 51 1032.7
20220811080149 16 10 8.0 19.3 0.00 0.00 0.00 51 1032.8
20220811075646 16 10 6.4 16.1 0.00 0.00 0.00 51 1032.9
20220811075146 16 10 8.0 14.5 0.00 0.00 0.00 51 1033.1
20220811074652 16 10 4.8 16.1 0.00 0.00 0.00 51 1033.0
20220811074152 16 10 0.0 19.3 0.00 0.00 0.00 51 1033.2
20220811073649 16 10 4.8 12.9 0.00 0.00 0.00 50 1033.3
20220811073149 16 10 9.7 16.1 0.00 0.00 0.00 51 1033.5
20220811072646 16 10 11.3 16.1 0.00 0.00 0.00 50 1033.6
20220811072146 16 10 8.0 19.3 0.00 0.00 0.00 50 1033.7
20220811071649 16 10 6.4 19.3 0.00 0.00 0.00 50 1033.7
20220811071146 16 10 14.5 19.3 0.00 0.00 0.00 50 1033.9
20220811070646 16 10 9.7 12.9 0.00 0.00 0.00 50 1034.1
20220811070152 16 10 1.6 17.7 0.00 0.00 0.00 50 1034.1
20220811065646 16 10 0.0 16.1 0.00 0.00 0.00 50 1034.2
20220811065146 16 10 11.3 11.3 0.00 0.00 0.00 50 1034.2
20220811064649 16 10 0.0 14.5 0.00 0.00 0.00 50 1034.4
20220811064146 16 10 0.0 11.3 0.00 0.00 0.00 50 1034.5
20220811063649 16 10 0.0 14.5 0.00 0.00 0.00 50 1034.5
20220811063146 16 10 0.0 6.4 0.00 0.00 0.00 50 1034.7
20220811062646 16 10 8.0 14.5 0.00 0.00 0.00 49 1034.7
20220811062152 16 10 0.0 14.5 0.00 0.00 0.00 49 1034.8
20220811061649 16 10 6.4 9.7 0.00 0.00 0.00 49 1034.9
20220811061149 16 10 0.0 9.7 0.00 0.00 0.00 49 1034.9
20220811060649 16 10 0.0 8.0 0.00 0.00 0.00 49 1035.0
20220811060149 16 10 0.0 14.5 0.00 0.00 0.00 49 1035.0
20220811055652 16 10 0.0 11.3 0.00 0.00 0.00 49 1035.1
20220811055149 16 10 0.0 12.9 0.00 0.00 0.00 50 1035.2
20220811054646 16 10 0.0 8.0 0.00 0.00 0.00 50 1035.3
20220811054152 16 10 6.4 6.4 0.00 0.00 0.00 50 1035.2
20220811053649 16 10 0.0 8.0 0.00 0.00 0.00 50 1035.3
20220811053146 16 10 0.0 11.3 0.00 0.00 0.00 50 1035.4
20220811052652 17 10 0.0 11.3 0.00 0.00 0.00 50 1035.4
20220811052146 17 10 0.0 12.9 0.00 0.00 0.00 50 1035.5
20220811051646 17 10 3.2 14.5 0.00 0.00 0.00 50 1035.5
20220811051152 17 10 0.0 0.0 0.00 0.00 0.00 50 1035.6
20220811050652 17 10 0.0 0.0 0.00 0.00 0.00 49 1035.7
20220811050146 17 10 0.0 0.0 0.00 0.00 0.00 49 1035.7
20220811045646 17 10 0.0 0.0 0.00 0.00 0.00 49 1035.7
20220811045152 17 10 0.0 0.0 0.00 0.00 0.00 49 1035.8
20220811044652 17 10 0.0 0.0 0.00 0.00 0.00 49 1035.9
20220811044146 17 10 0.0 0.0 0.00 0.00 0.00 49 1036.0
20220811043646 17 10 0.0 0.0 0.00 0.00 0.00 49 1036.1
20220811043146 17 10 0.0 0.0 0.00 0.00 0.00 49 1036.0
20220811042652 17 10 0.0 0.0 0.00 0.00 0.00 49 1036.0
20220811042146 17 10 0.0 0.0 0.00 0.00 0.00 50 1036.0
20220811041646 17 10 0.0 0.0 0.00 0.00 0.00 50 1036.1
20220811041149 17 10 0.0 0.0 0.00 0.00 0.00 51 1036.1
20220811040646 17 10 0.0 0.0 0.00 0.00 0.00 51 1036.1
20220811040146 17 10 0.0 0.0 0.00 0.00 0.00 51 1036.2
20220811035646 17 10 0.0 0.0 0.00 0.00 0.00 51 1036.2
20220811035149 17 10 0.0 0.0 0.00 0.00 0.00 50 1036.2
20220811034649 17 10 0.0 0.0 0.00 0.00 0.00 50 1036.2
20220811034146 17 10 0.0 0.0 0.00 0.00 0.00 49 1036.2
20220811033649 17 10 0.0 0.0 0.00 0.00 0.00 49 1036.2
20220811033146 17 10 0.0 0.0 0.00 0.00 0.00 49 1036.3
20220811032652 17 10 0.0 0.0 0.00 0.00 0.00 48 1036.4
20220811032149 17 10 0.0 0.0 0.00 0.00 0.00 48 1036.4
20220811031649 18 10 0.0 0.0 0.00 0.00 0.00 48 1036.3
20220811031149 18 10 0.0 0.0 0.00 0.00 0.00 47 1036.2
20220811030646 18 10 0.0 0.0 0.00 0.00 0.00 46 1036.3
20220811030149 18 10 0.0 0.0 0.00 0.00 0.00 46 1036.2
20220811025646 18 10 0.0 0.0 0.00 0.00 0.00 45 1036.2
20220811025149 18 10 0.0 0.0 0.00 0.00 0.00 44 1036.3
20220811024652 18 10 0.0 0.0 0.00 0.00 0.00 43 1036.2
20220811024146 19 10 0.0 0.0 0.00 0.00 0.00 43 1036.3
20220811023652 19 10 0.0 0.0 0.00 0.00 0.00 42 1036.3
20220811023152 19 10 0.0 0.0 0.00 0.00 0.00 41 1036.3
20220811022646 19 10 0.0 0.0 0.00 0.00 0.00 41 1036.3
20220811022146 20 10 0.0 0.0 0.00 0.00 0.00 40 1036.2
20220811021649 20 10 0.0 0.0 0.00 0.00 0.00 39 1036.2
20220811021149 20 10 0.0 0.0 0.00 0.00 0.00 38 1036.1
20220811020649 20 10 0.0 0.0 0.00 0.00 0.00 37 1036.2
20220811020149 20 10 0.0 0.0 0.00 0.00 0.00 36 1036.1
20220811015646 21 10 0.0 0.0 0.00 0.00 0.00 35 1036.0
20220811015146 21 10 0.0 0.0 0.00 0.00 0.00 35 1036.1
20220811014646 21 10 0.0 0.0 0.00 0.00 0.00 35 1036.0
20220811014152 21 10 0.0 0.0 0.00 0.00 0.00 35 1036.0
20220811013649 21 10 0.0 0.0 0.00 0.00 0.00 34 1035.9
20220811013149 21 10 0.0 0.0 0.00 0.00 0.00 34 1035.8
20220811012649 22 10 0.0 0.0 0.00 0.00 0.00 34 1035.8
20220811012146 22 10 0.0 0.0 0.00 0.00 0.00 33 1035.8
20220811011649 22 10 0.0 6.4 0.00 0.00 0.00 32 1035.8
20220811011149 22 10 0.0 0.0 0.00 0.00 0.00 32 1035.7
20220811010649 22 81 0.0 0.0 0.00 0.00 0.00 31 1035.8
20220811010149 22 10 0.0 0.0 0.00 0.00 0.00 31 1035.6
20220811005646 22 10 0.0 0.0 0.00 0.00 0.00 31 1035.6
20220811005149 22 10 0.0 0.0 0.00 0.00 0.00 32 1035.5
20220811004652 22 10 0.0 0.0 0.00 0.00 0.00 32 1035.5
20220811004149 22 10 0.0 0.0 0.00 0.00 0.00 32 1035.4
20220811003646 22 10 0.0 0.0 0.00 0.00 0.00 31 1035.4
20220811003146 22 10 0.0 0.0 0.00 0.00 0.00 31 1035.4
20220811002649 22 10 0.0 0.0 0.00 0.00 0.00 29 1035.4
20220811002149 22 10 0.0 0.0 0.00 0.00 0.00 29 1035.4
20220811001649 22 10 0.0 0.0 0.00 0.00 0.00 31 1035.3
20220811001146 22 10 0.0 0.0 0.00 0.00 0.00 31 1035.3
20220811000652 23 10 0.0 11.3 0.00 0.00 0.00 30 1035.3
20220811000146 23 10 0.0 6.4 0.00 0.00 0.00 32 1035.2
20220810235649 23 10 1.6 16.1 0.00 0.00 0.00 31 1035.1
20220810235146 23 10 4.8 11.3 0.00 0.00 0.00 30 1035.3
20220810234646 23 10 0.0 0.0 0.00 0.00 0.00 30 1035.2